Weatherford, OK

6:00 AM CDT on July 22, 2017 (GMT -0500)
Weatherford

Weather History for KOJA - April, 2013

Change the Weather History Date:

Wednesday, April 24, 2013

  Actual Average (KJWG) Record (KJWG)
Temperature  
Mean Temperature 44 °F -  
Max Temperature 59 °F 74 °F 91 °F (1989)
Min Temperature 28 °F 47 °F 26 °F (2013)
Degree Days  
Heating Degree Days 22    
Moisture  
Dew Point 31 °F    
Average Humidity 68    
Maximum Humidity 100    
Minimum Humidity 34    
Precipitation  
Precipitation 0.00 in - - ()
Sea Level Pressure  
Sea Level Pressure 30.29 in    
Wind  
Wind Speed 8 mph (NNW)    
Max Wind Speed 15 mph    
Max Gust Speed 24 mph    
Visibility 10 miles    
Events      
Averages and records for this station are not official NWS values.
T = Trace of Precipitation, MM = Missing Value Source: NWS Daily Summary

Daily Weather History Graph

Daily Weather History Graph

Search for Another Location

Airport or City:

Trip Planner

Search our weather history database for the weather conditions in past years. The results will help you decide how hot, cold, wet, or windy it might be!

Date:

Astronomy

Apr. 24, 2013 Rise Set
Actual Time 6:50 AM CDT 8:15 PM CDT
Civil Twilight 6:23 AM CDT 8:42 PM CDT
Nautical Twilight 5:51 AM CDT 9:14 PM CDT
Astronomical Twilight 5:18 AM CDT 9:48 PM CDT
Moon 7:21 PM CDT (4/24) 5:52 AM CDT (4/24)
Length of Visible Light 14h 18m
Length of Day
13h 24m
Waxing Gibbous, 98% of the Moon is Illuminated
Apr 24
Waxing Gibbous
Apr 25
Full
May 2
Last Quarter
May 9
New
May 17
First Quarter

Hourly Weather History & Observations

Time (CDT) Temp. Windchill Dew Point Humidity Pressure Visibility Wind Dir Wind Speed Gust Speed Precip Events Conditions
12:15 AM 33.8 °F 23.9 °F 28.4 °F 81% 30.28 in 10.0 mi North 15.0 mph 18.4 mph N/A   Overcast
12:35 AM 33.8 °F 24.3 °F 30.2 °F 87% 30.29 in 10.0 mi NNW 13.8 mph 24.2 mph N/A   Scattered Clouds
12:55 AM 32.0 °F 23.6 °F 30.2 °F 93% 30.30 in 10.0 mi North 10.4 mph - N/A   Clear
1:15 AM 32.0 °F 24.8 °F 30.2 °F 93% 30.30 in 10.0 mi NNW 8.1 mph - N/A   Scattered Clouds
1:35 AM 32.0 °F 23.0 °F 32.0 °F 100% 30.31 in 10.0 mi NNW 11.5 mph - N/A   Overcast
1:55 AM 32.0 °F 23.6 °F 30.2 °F 93% 30.31 in 10.0 mi NNW 10.4 mph - N/A   Overcast
2:15 AM 32.0 °F 24.8 °F 30.2 °F 93% 30.31 in 10.0 mi NNW 8.1 mph - N/A   Mostly Cloudy
2:35 AM 32.0 °F 24.2 °F 30.2 °F 93% 30.30 in 10.0 mi North 9.2 mph - N/A   Scattered Clouds
2:55 AM 30.2 °F 23.4 °F 28.4 °F 93% 30.28 in 10.0 mi North 6.9 mph - N/A   Clear
3:15 AM 30.2 °F 25.4 °F 28.4 °F 93% 30.27 in 10.0 mi North 4.6 mph - N/A   Clear
3:55 AM 28.4 °F 24.6 °F 28.4 °F 100% 30.27 in 10.0 mi NW 3.5 mph - N/A   Clear
4:15 AM 28.4 °F 24.6 °F 28.4 °F 100% 30.28 in 10.0 mi NW 3.5 mph - N/A   Clear
4:35 AM 28.4 °F 23.3 °F 28.4 °F 100% 30.29 in 10.0 mi WNW 4.6 mph - N/A   Clear
4:55 AM 28.4 °F 23.3 °F 28.4 °F 100% 30.30 in 10.0 mi West 4.6 mph - N/A   Clear
5:15 AM 28.4 °F 24.6 °F 28.4 °F 100% 30.30 in 10.0 mi West 3.5 mph - N/A   Clear
5:35 AM 28.4 °F - 28.4 °F 100% 30.30 in 10.0 mi Calm Calm - N/A   Clear
5:55 AM 28.4 °F 24.6 °F 28.4 °F 100% 30.29 in 10.0 mi West 3.5 mph - N/A   Clear
6:15 AM 28.4 °F 23.3 °F 28.4 °F 100% 30.29 in 10.0 mi West 4.6 mph - N/A   Clear
6:35 AM 28.4 °F 22.2 °F 28.4 °F 100% 30.30 in 10.0 mi WSW 5.8 mph - N/A   Clear
6:55 AM 28.4 °F 23.3 °F 28.4 °F 100% 30.31 in 7.0 mi WSW 4.6 mph - N/A   Clear
7:15 AM 28.4 °F 22.2 °F 28.4 °F 100% 30.30 in 7.0 mi WSW 5.8 mph - N/A   Clear
7:35 AM 30.2 °F 24.3 °F 28.4 °F 93% 30.31 in 7.0 mi West 5.8 mph - N/A   Clear
7:55 AM 30.2 °F 25.4 °F 28.4 °F 93% 30.31 in 7.0 mi West 4.6 mph - N/A   Clear
8:15 AM 32.0 °F 26.4 °F 30.2 °F 93% 30.32 in 7.0 mi WSW 5.8 mph - N/A   Clear
8:35 AM 32.0 °F 25.6 °F 30.2 °F 93% 30.34 in 10.0 mi WSW 6.9 mph - N/A   Clear
8:55 AM 33.8 °F 28.6 °F 32.0 °F 93% 30.33 in 10.0 mi WNW 5.8 mph - N/A   Clear
9:15 AM 35.6 °F 29.9 °F 32.0 °F 87% 30.33 in 10.0 mi NW 6.9 mph - N/A   Clear
9:35 AM 37.4 °F 32.1 °F 32.0 °F 81% 30.32 in 10.0 mi NW 6.9 mph - N/A   Clear
9:55 AM 41.0 °F 36.4 °F 32.0 °F 70% 30.31 in 10.0 mi North 6.9 mph - N/A   Clear
10:15 AM 42.8 °F 37.5 °F 32.0 °F 66% 30.31 in 10.0 mi NNW 9.2 mph - N/A   Clear
10:35 AM 42.8 °F 38.0 °F 32.0 °F 66% 30.31 in 10.0 mi North 8.1 mph - N/A   Clear
10:55 AM 44.6 °F 40.2 °F 30.2 °F 57% 30.33 in 10.0 mi NNW 8.1 mph - N/A   Clear
11:15 AM 46.4 °F 42.9 °F 30.2 °F 53% 30.33 in 10.0 mi NNW 6.9 mph - N/A   Clear
11:35 AM 46.4 °F - 30.2 °F 53% 30.33 in 10.0 mi Calm Calm - N/A   Clear
11:55 AM 48.2 °F - 30.2 °F 50% 30.33 in 10.0 mi North 5.8 mph - N/A   Clear
12:15 PM 50.0 °F - 30.2 °F 47% 30.33 in 10.0 mi Calm Calm - N/A   Clear
12:35 PM 50.0 °F - 30.2 °F 47% 30.32 in 10.0 mi North 3.5 mph - N/A   Clear
12:55 PM 50.0 °F - 30.2 °F 47% 30.31 in 10.0 mi NNW 9.2 mph - N/A   Clear
1:15 PM 51.8 °F - 32.0 °F 47% 30.30 in 10.0 mi NW 5.8 mph - N/A   Clear
1:35 PM 51.8 °F - 30.2 °F 44% 30.29 in 10.0 mi NNW 8.1 mph - N/A   Clear
1:55 PM 51.8 °F - 30.2 °F 44% 30.29 in 10.0 mi North 6.9 mph - N/A   Clear
2:15 PM 53.6 °F - 30.2 °F 41% 30.28 in 10.0 mi North 6.9 mph - N/A   Clear
2:35 PM 53.6 °F - 32.0 °F 44% 30.28 in 10.0 mi North 10.4 mph 16.1 mph N/A   Clear
2:55 PM 55.4 °F - 30.2 °F 38% 30.27 in 10.0 mi North 6.9 mph - N/A   Clear
3:15 PM 55.4 °F - 32.0 °F 41% 30.25 in 10.0 mi NW 5.8 mph - N/A   Clear
3:35 PM 55.4 °F - 30.2 °F 38% 30.25 in 10.0 mi NNE 5.8 mph - N/A   Clear
3:55 PM 55.4 °F - 30.2 °F 38% 30.24 in 10.0 mi NNE 3.5 mph - N/A   Clear
4:15 PM 57.2 °F - 30.2 °F 36% 30.23 in 10.0 mi Calm Calm - N/A   Clear
4:35 PM 57.2 °F - 32.0 °F 38% 30.22 in 10.0 mi Calm Calm - N/A   Clear
4:55 PM 59.0 °F - 30.2 °F 34% 30.22 in 10.0 mi East 6.9 mph - N/A   Clear
5:15 PM 59.0 °F - 32.0 °F 36% 30.22 in 10.0 mi ENE 6.9 mph - N/A   Clear
5:35 PM 59.0 °F - 30.2 °F 34% 30.23 in 10.0 mi East 4.6 mph - N/A   Clear
5:55 PM 59.0 °F - 30.2 °F 34% 30.22 in 10.0 mi ENE 4.6 mph - N/A   Clear
6:15 PM 59.0 °F - 30.2 °F 34% 30.23 in 10.0 mi Calm Calm - N/A   Clear
6:35 PM 57.2 °F - 32.0 °F 38% 30.24 in 10.0 mi ENE 4.6 mph - N/A   Clear
6:55 PM 55.4 °F - 32.0 °F 41% 30.24 in 10.0 mi East 9.2 mph - N/A   Clear
7:15 PM 55.4 °F - 32.0 °F 41% 30.24 in 10.0 mi ESE 9.2 mph - N/A   Clear
7:35 PM 53.6 °F - 32.0 °F 44% 30.24 in 10.0 mi ESE 6.9 mph - N/A   Clear
7:55 PM 51.8 °F - 33.8 °F 50% 30.24 in 10.0 mi East 8.1 mph - N/A   Clear
8:15 PM 50.0 °F - 35.6 °F 58% 30.25 in 10.0 mi ESE 6.9 mph - N/A   Clear
8:35 PM 50.0 °F - 35.6 °F 58% 30.26 in 10.0 mi ESE 6.9 mph - N/A   Clear
8:55 PM 46.4 °F 42.9 °F 35.6 °F 66% 30.27 in 10.0 mi East 6.9 mph - N/A   Clear
10:15 PM 46.4 °F 42.9 °F 33.8 °F 62% 30.29 in 10.0 mi SSE 6.9 mph - N/A   Clear
10:35 PM 46.4 °F 43.5 °F 33.8 °F 62% 30.30 in 10.0 mi South 5.8 mph - N/A   Clear
10:55 PM 44.6 °F 42.2 °F 33.8 °F 66% 30.31 in 10.0 mi South 4.6 mph - N/A   Clear
11:15 PM 46.4 °F 45.2 °F 33.8 °F 62% 30.31 in 10.0 mi South 3.5 mph - N/A   Clear
11:35 PM 46.4 °F 44.3 °F 33.8 °F 62% 30.31 in 10.0 mi South 4.6 mph - N/A   Clear
11:55 PM 46.4 °F 45.2 °F 33.8 °F 62% 30.31 in 10.0 mi South 3.5 mph - N/A   Clear